Location: Laguna de la Cañada del Gallo
(40.3974°N, 5.2096°W)
Time: 12:04:28
(UTC+00:00)

Cosmos 44 - Pass Details

Date: 18 April 2024
Orbit: 577 x 779 km, 65.1° (Epoch: 22 May)

Event Time Altitude Azimuth Distance (km) Brightness Sun altitude
Rises 20:54:34 0° 207° (SSW) 3,231 6.7 -19.9°
Reaches altitude 10° 20:56:57 10° 206° (SSW) 2,317 5.9 -20.3°
Maximum altitude 21:02:19 81° 120° (ESE) 793 3.4 -21.1°
Drops below altitude 10° 21:07:41 10° 34° (NE) 2,317 6.0 -21.9°
Sets 21:10:04 0° 33° (NNE) 3,230 6.8 -22.2°
